User: anonymous   Login
Location: Unspecified
(0.0000°N, 0.0000°E)
Time: 21:38:23
(UTC+00:00)
Language:

AAUSAT CUBESAT 2 - Orbit

View from above orbital plane
View from above orbital plane
View from above satellite
View from above satellite

Ground track
Ground track

The orbit data is extracted from the following two-line orbital elements,

1 32788U 08021F   18048.82700328  .00000864  00000-0  85597-4 0  9996
2 32788  97.5343  80.2347 0012606  35.3906 324.8149 14.94222239532353
Epoch (UTC): 17 February 2018 19:50:53
Eccentricity: 0.0012606
inclination: 97.5343°
perigee height: 576 km
apogee height: 593 km
right ascension of ascending node: 80.2347°
argument of perigee: 35.3906°
revolutions per day: 14.94222239
mean anomaly at epoch: 324.8149°
orbit number at epoch: 53235

The dashed part of the orbit path shows where the satellite is in the earth's shadow,  

DLR